Location: Tierz
(42.1336°N, 0.3549°W)
Time: 17:05:46
(UTC+00:00)

Cosmos 2058 - Pass Details

Date: 29 October 2020
Orbit: 562 x 583 km, 82.5° (Epoch: 04 December)

Event Time Altitude Azimuth Distance (km) Brightness Sun altitude
Rises 17:30:30 0° 7° (N) 2,764 6.2 -6.5°
Reaches altitude 10° 17:33:13 10° 26° (NNE) 1,863 5.2 -7.0°
Maximum altitude 17:36:10 19° 72° (ENE) 1,380 4.2 -7.6°
Drops below altitude 10° 17:39:06 10° 118° (ESE) 1,856 5.1 -8.1°
Sets 17:41:48 0° 137° (SE) 2,749 6.1 -8.6°
